Погода в Усть-Чеме

Россия / Новосибирская область     54°39′44″N   83°43′45″E
темп.,
°C
ветер,
м/с
пор.,
м/с
влажн.,
%
обл.,
%
осадки,
мм/ч
давл.,
гПа
погр.,
м
24 января, вс
вс2401:00−18юз3897100 0.8 1031578
04:00−20зюз3699100 0.4 1032279
07:00−23з3598100 0.5 1034208
10:00−27зсз3698100 0.1 1035229
13:00−29з3497100 0.1 1038290
16:00−31з3597100 0.0 1039301
19:00−37з339878 0.0 104335
22:00−40з229914 0.0 104524
25 января, пн
пн2501:00−42зюз229924 0.0 104818
04:00−43юз239952 0.0 104921
07:00−43ююз239853 0.0 105126
10:00−42ю239867 0.0 105037
13:00−37ю469578 0.0 1050273
16:00−35ю4694100 0.0 1047281
19:00−35ююв3695100 0.0 1046180
22:00−34ююв2596100 0.0 1044136
26 января, вт
вт2601:00−32ююв2398100 0.0 1042122
04:00−30вюв1298100 0.1 104194
07:00−30вюв119899 0.2 104126
10:00−32в119972 0.0 104119
13:00−26вюв119336 0.0 1041144
16:00−24всв019461 0.0 1040116
19:00−28в119753 0.0 104119
22:00−26ююв2396100 0.0 104036
27 января, ср
ср2701:00−23ююв389799 0.0 1038221
04:00−20ю5997100 0.3 1036321
07:00−15ююз61195100 0.9 1032501
10:00−13ююз61395100 1.0 1030552
13:00−10юз71294100 2.3 1028581
16:00−7юз71395100 1.2 1027701
19:00−5юз71395100 2.4 1027765
22:00−4зюз71394100 0.7 1027868
28 января, чт
чт2801:00−5зюз71394100 1.1 1027849
04:00−7зюз61394100 0.4 1028658
07:00−7зюз61195100 1.4 1028612
10:00−8зюз61194100 0.6 1029524
13:00−7юз61194100 0.8 1029562
16:00−6зюз61193100 0.3 1028750
19:00−8зюз71493100 0.4 1028577
22:00−7зюз71393100 0.3 1027704